RH
29 28 30 31 32 33 35 31 30 27 32 28 26 27 28 30 30 31 30 29 27 25 23 24 23 23 23 24 25 26 27 25 23 21 20 21 23 26 28 26 30 30 24 23
30 25 29 31 28 28 30 28 28 25 24 22 23 26 28 29 30 29 27 26 26 25 25 25 25 25 27 28 29 30 28 24 22 21 20 21 22 25 29 32 33 33 36 32
34 29 26 27 23 26 24 23 24 28 22 19 20 22 24 25 27 27 28 27 27 27 27 28 29 30 30 29 27 25 23 22 22 22 24 24 23 25 26 28 31 37 39 42
33 26 25 14 18 18 21 19 20 21 22 23 24 24 26 27 28 29 29 29 29 28 28 28 28 28 26 25 24 23 22 22 22 22 23 24 26 26 25 23 26 31 33 37
33 28 19 17 19 21 22 19 17 19 21 23 24 25 27 27 27 26 27 26 25 25 25 26 26 26 25 26 28 28 29 29 29 28 27 27 27 28 29 28 27 29 29 29
49 49 47 37 37 34 32 33 32 33 33 35 35 39 38 38 40 42 42 42 41 40 41 44 44 43 45 49 52 52 52 50 48 47 45 44 42 41 38 37 36 35 34 33
52 50 42 37 38 37 36 39 38 38 40 43 45 45 46 47 48 49 50 51 53 55 56 55 53 52 49 48 49 50 50 49 48 47 45 44 43 43 44 45 46 47 47 46
55 55 54 41 42 41 39 39 38 38 41 43 44 45 45 45 46 48 50 51 53 52 51 49 48 48 49 50 50 51 52 52 51 49 48 45 42 41 39 39 40 40 40 42
50 49 44 43 40 41 41 42 43 44 45 47 47 46 47 49 50 51 52 53 52 52 53 54 54 54 55 56 57 58 55 54 53 52 49 44 39 35 35 35 38 40 42 43
50 45 48 48 46 46 47 48 48 48 49 49 50 52 54 56 57 57 59 59 59 60 60 60 60 60 59 59 56 55 56 56 52 47 42 37 33 31 30 29 31 32 32 35
56 53 53 52 52 53 53 52 52 53 55 56 57 61 63 64 65 65 66 66 66 65 65 65 64 63 61 59 59 60 57 53 49 44 38 34 33 32 30 29 28 27 27 29
61 59 60 58 59 60 60 60 60 61 62 64 65 68 69 70 72 73 73 74 75 75 73 70 67 64 63 61 59 55 52 48 42 37 34 32 31 29 28 27 27 27 26 25
64 65 66 64 65 66 65 65 65 66 67 67 70 72 72 75 77 79 79 80 79 76 72 70 67 63 60 54 50 44 39 37 36 34 33 32 31 28 27 26 26 25 24 24
69 73 73 72 70 70 68 68 68 71 72 74 75 77 81 84 85 85 84 80 76 72 70 66 63 58 50 41 38 41 40 38 33 30 28 27 26 26 26 26 25 25 26 25
75 73 72 72 71 72 73 74 74 75 78 81 85 86 88 88 85 80 77 72 68 65 61 54 47 42 38 36 34 31 30 30 29 29 29 29 28 28 28 27 25 24 24 24
75 74 74 73 74 74 74 75 77 79 80 84 86 88 79 70 64 62 62 58 51 47 41 35 29 27 26 27 27 26 26 26 26 27 27 28 29 29 28 26 24 22 20 18
75 74 74 72 71 70 71 71 73 75 73 70 65 62 59 58 59 52 41 34 30 27 26 24 21 22 22 21 21 21 21 21 21 22 23 24 25 25 24 22 21 19 18 17
68 65 64 63 63 63 65 67 67 62 58 53 50 55 55 41 32 29 27 24 23 22 22 21 20 18 16 15 18 19 21 22 24 27 28 29 28 26 24 24 24 24 21 21
58 58 60 61 61 61 60 56 52 52 55 55 47 34 28 24 22 20 21 20 21 21 17 17 16 17 18 19 23 24 26 27 29 30 32 33 33 32 31 31 29 28 28 28
61 60 62 61 55 52 51 52 54 45 34 26 23 23 22 22 22 22 22 20 18 20 19 19 20 21 23 25 26 27 28 29 30 30 31 32 33 34 35 35 37 36 35 34
62 59 54 51 52 52 44 33 27 25 25 25 24 24 24 24 23 22 21 21 19 24 23 23 23 24 27 28 29 30 31 33 35 36 36 39 40 40 39 38 40 42 39 38
55 49 44 40 35 28 26 25 27 28 30 30 28 25 25 25 26 26 26 27 25 25 25 24 26 29 33 36 36 37 38 39 40 42 44 45 47 48 48 45 44 46 46 43
31 28 28 32 32 31 32 32 32 33 33 33 31 32 34 33 33 32 28 28 28 27 27 26 28 32 36 39 40 41 42 42 43 45 47 47 51 55 53 50 48 49 48 44
32 33 35 38 39 39 37 37 40 38 39 39 39 39 40 40 36 35 35 34 33 33 32 31 30 31 37 41 45 48 48 49 48 50 51 52 52 52 52 50 50 51 49 50
36 37 37 37 39 41 44 43 43 42 43 42 41 41 40 41 41 34 35 35 35 34 31 31 36 39 43 50 57 57 57 58 61 67 69 68 65 58 53 52 53 54 54 53
42 42 45 47 48 50 51 52 51 46 45 42 37 37 35 35 35 36 34 32 31 32 35 38 42 47 49 57 63 66 67 73 80 80 81 79 76 70 61 56 59 58 58 56
46 49 49 48 50 52 51 51 50 47 45 43 40 36 35 34 34 35 36 37 41 45 47 48 49 52 59 66 70 72 83 89 87 87 86 84 80 75 70 63 61 61 60 72